Location: Althorst
(53.6379°N, 10.7715°E)
Time: 01:39:36
(UTC+00:00)

Cosmos 2369 Rocket - Pass Details

Date: 10 December 2019
Orbit: 828 x 853 km, 71.0° (Epoch: 22 January)

Event Time Altitude Azimuth Distance (km) Brightness Sun altitude
Rises 17:15:50 0° 328° (NNW) 3,389 5.6 -19.2°
Reaches altitude 10° 17:18:23 10° 334° (NNW) 2,455 4.8 -19.5°
Maximum altitude 17:23:47 46° 48° (NE) 1,118 2.4 -20.3°
Enters shadow 17:24:57 41° 81° (E) 1,212 2.5 -20.5°
